GW5909 Weather Reports


time (UTC)temp
F
wind
direction
speed
knots
gust
knots
rain 1hr
in
rain 24hr
in
rain mn
in
humidity
%
barometer
mb
20260509022404 61 192 0.0 1.7 0.00 0.00 0.00 50 1008.7
20260509021904 61 191 0.0 0.9 0.00 0.00 0.00 50 1008.8
20260509021404 61 193 0.0 1.7 0.00 0.00 0.00 50 1008.6
20260509020904 60 202 0.0 2.6 0.00 0.00 0.00 50 1008.7
20260509020404 60 195 0.0 2.6 0.00 0.00 0.00 50 1008.5
20260509015904 60 191 0.0 0.9 0.00 0.00 0.00 49 1008.4
20260509015404 60 191 0.0 0.9 0.00 0.00 0.00 49 1008.5
20260509014905 60 195 0.0 0.0 0.00 0.00 0.00 48 1008.8
20260509014405 60 195 0.0 0.0 0.00 0.00 0.00 48 1008.6
20260509013404 61 195 0.0 0.0 0.00 0.00 0.00 47 1008.5
20260509012905 61 195 0.0 0.0 0.00 0.00 0.00 46 1008.4
20260509011904 62 195 0.0 0.0 0.00 0.00 0.00 45 1008.6
20260509011405 62 195 0.0 0.0 0.00 0.00 0.00 45 1008.2
20260509010904 63 195 0.0 0.0 0.00 0.00 0.00 44 1008.3
20260509010404 63 195 0.0 0.0 0.00 0.00 0.00 44 1008.4
20260509005906 64 195 0.0 0.9 0.00 0.00 0.00 43 1008.1
20260509005404 64 193 0.0 0.0 0.00 0.00 0.00 43 1008.1
20260509004906 65 193 0.0 2.6 0.00 0.00 0.00 43 1008.1
20260509004405 65 203 0.0 0.9 0.00 0.00 0.00 43 1008.2
20260509003904 66 206 0.0 0.0 0.00 0.00 0.00 42 1007.7
20260509003404 67 207 0.0 0.0 0.00 0.00 0.00 42 1007.7
20260509002905 67 207 0.0 0.0 0.00 0.00 0.00 42 1007.7
20260509002404 67 207 0.0 4.3 0.00 0.00 0.00 41 1008.0
20260509001905 68 260 0.0 1.7 0.00 0.00 0.00 41 1007.7
20260509001404 68 205 0.9 5.2 0.00 0.00 0.00 41 1007.9
20260509000904 69 190 0.0 0.9 0.00 0.00 0.00 41 1008.0
20260508235904 70 195 0.0 0.9 0.00 0.00 0.00 40 1007.8
20260508235405 70 197 0.0 0.0 0.00 0.00 0.00 40 1008.1
20260508234904 71 201 0.0 1.7 0.00 0.00 0.00 41 1007.9
20260508234405 70 209 0.0 1.7 0.00 0.00 0.00 41 1007.9
20260508233906 70 209 0.0 5.2 0.00 0.00 0.00 40 1007.9
20260508233404 70 226 0.0 1.7 0.00 0.00 0.00 40 1008.0
20260508232904 70 206 0.0 5.2 0.00 0.00 0.00 40 1008.2
20260508232404 70 206 0.0 2.6 0.00 0.00 0.00 39 1008.0
20260508231404 72 278 0.9 6.1 0.00 0.00 0.00 39 1008.2
20260508230904 72 207 0.0 4.3 0.00 0.00 0.00 39 1008.1
20260508230404 72 188 1.7 6.1 0.00 0.00 0.00 38 1007.9
20260508225904 73 196 1.7 10.4 0.00 0.00 0.00 38 1008.0
20260508224904 74 185 4.3 11.3 0.00 0.00 0.00 38 1008.0
20260508224405 74 196 5.2 13.0 0.00 0.00 0.00 38 1007.9
20260508223904 74 187 5.2 13.0 0.00 0.00 0.00 38 1007.7
20260508222404 75 196 2.6 7.8 0.00 0.00 0.00 38 1007.9
20260508221904 75 228 1.7 11.3 0.00 0.00 0.00 37 1008.0
20260508221404 75 190 5.2 10.4 0.00 0.00 0.00 37 1007.7
20260508220904 75 187 2.6 13.9 0.00 0.00 0.00 37 1007.9
20260508220404 75 180 1.7 7.8 0.00 0.00 0.00 37 1007.7
20260508215404 75 212 3.5 8.7 0.00 0.00 0.00 37 1007.6
20260508214404 75 221 2.6 7.0 0.00 0.00 0.00 38 1007.8
20260508213904 75 231 0.9 2.6 0.00 0.00 0.00 37 1007.8
20260508212904 75 239 0.9 6.1 0.00 0.00 0.00 38 1008.0
20260508212404 75 43 0.0 5.2 0.00 0.00 0.00 38 1007.9
20260508211904 75 109 0.9 7.8 0.00 0.00 0.00 38 1007.8
20260508211404 75 268 0.9 12.2 0.00 0.00 0.00 37 1007.6
20260508210904 75 190 1.7 7.0 0.00 0.00 0.00 37 1007.9
20260508210404 76 306 0.9 5.2 0.00 0.00 0.00 37 1007.8
20260508204903 76 301 0.9 7.8 0.00 0.00 0.00 38 1008.1
20260508204404 76 199 0.9 8.7 0.00 0.00 0.00 38 1008.1
20260508203404 76 215 1.7 7.0 0.00 0.00 0.00 38 1008.4
20260508202904 76 214 0.9 5.2 0.00 0.00 0.00 38 1008.6
20260508202404 77 235 1.7 2.6 0.00 0.00 0.00 38 1008.7
20260508201904 77 223 0.9 8.7 0.00 0.00 0.00 38 1008.8
20260508201403 77 187 0.9 7.0 0.00 0.00 0.00 39 1008.8
20260508200404 77 295 0.9 14.8 0.00 0.00 0.00 39 1009.2
20260508195404 76 284 0.9 6.1 0.00 0.00 0.00 39 1009.4
20260508194904 76 205 2.6 12.2 0.00 0.00 0.00 39 1009.2
20260508194404 76 218 1.7 17.4 0.00 0.00 0.00 39 1009.4
20260508193904 75 179 2.6 17.4 0.00 0.00 0.00 39 1009.2
20260508193404 76 305 1.7 11.3 0.00 0.00 0.00 39 1009.1
20260508192903 75 180 3.5 11.3 0.00 0.00 0.00 39 1009.2
20260508192403 76 218 2.6 7.0 0.00 0.00 0.00 39 1009.0
20260508191904 75 191 1.7 7.8 0.00 0.00 0.00 40 1009.0
20260508191404 75 197 2.6 15.6 0.00 0.00 0.00 40 1009.4
20260508190904 75 201 2.6 14.8 0.00 0.00 0.00 40 1009.6
20260508185904 75 191 4.3 12.2 0.00 0.00 0.00 40 1009.4
20260508185403 75 151 4.3 7.8 0.00 0.00 0.00 40 1009.5
20260508184904 75 218 3.5 14.8 0.00 0.00 0.00 41 1009.6
20260508184403 75 194 1.7 13.9 0.00 0.00 0.00 40 1009.4
20260508183904 75 190 5.2 13.0 0.00 0.00 0.00 41 1009.8
20260508183403 75 202 2.6 12.2 0.00 0.00 0.00 41 1010.0
20260508181404 75 182 3.5 12.2 0.00 0.00 0.00 42 1010.1
20260508180904 75 186 1.7 7.0 0.00 0.00 0.00 42 1010.5
20260508180403 75 346 0.9 7.8 0.00 0.00 0.00 43 1010.5
20260508175904 75 290 1.7 7.8 0.00 0.00 0.00 43 1010.5
20260508175404 75 209 1.7 12.2 0.00 0.00 0.00 43 1010.7
20260508174404 74 187 2.6 11.3 0.00 0.00 0.00 43 1010.9
20260508173904 74 204 5.2 11.3 0.00 0.00 0.00 44 1011.0
20260508173404 74 166 3.5 13.9 0.00 0.00 0.00 44 1011.1
20260508172904 74 315 0.9 4.3 0.00 0.00 0.00 43 1011.3
20260508171904 74 211 1.7 8.7 0.00 0.00 0.00 44 1011.6
20260508171403 74 194 1.7 8.7 0.00 0.00 0.00 44 1011.7
20260508170903 74 326 0.9 2.6 0.00 0.00 0.00 44 1011.8
20260508170404 74 190 0.9 8.7 0.00 0.00 0.00 45 1011.9
20260508165903 74 240 3.5 8.7 0.00 0.00 0.00 45 1011.9
20260508165404 74 183 1.7 5.2 0.00 0.00 0.00 46 1011.9
20260508164406 74 301 0.9 6.1 0.00 0.00 0.00 46 1012.2
20260508163906 73 195 0.9 6.1 0.00 0.00 0.00 46 1012.3
20260508163406 73 264 0.9 7.8 0.00 0.00 0.00 46 1012.3
20260508162906 73 205 0.0 4.3 0.00 0.00 0.00 46 1012.6
20260508162405 73 328 0.0 6.1 0.00 0.00 0.00 46 1012.6
20260508161906 73 273 0.9 2.6 0.00 0.00 0.00 46 1012.9
20260508161406 73 279 0.0 4.3 0.00 0.00 0.00 47 1012.9
20260508160906 72 211 0.9 2.6 0.00 0.00 0.00 46 1013.1
20260508160406 73 293 1.7 5.2 0.00 0.00 0.00 46 1012.8
20260508155905 73 196 1.7 6.1 0.00 0.00 0.00 46 1012.9
20260508154905 74 322 0.0 2.6 0.00 0.00 0.00 45 1013.1
20260508153906 77 285 0.9 5.2 0.00 0.00 0.00 46 1012.8
20260508153405 77 201 1.7 7.0 0.00 0.00 0.00 46 1013.1
20260508152906 78 170 0.9 7.8 0.00 0.00 0.00 48 1013.0
20260508152406 77 186 1.7 5.2 0.00 0.00 0.00 50 1012.9
20260508151905 76 261 0.0 2.6 0.00 0.00 0.00 50 1013.4
20260508151406 75 314 0.0 1.7 0.00 0.00 0.00 51 1013.3
20260508150905 74 202 0.9 5.2 0.00 0.00 0.00 52 1013.4
20260508145906 73 192 0.0 4.3 0.00 0.00 0.00 55 1013.7
20260508145406 72 289 0.0 4.3 0.00 0.00 0.00 57 1013.6
20260508144406 71 276 1.7 5.2 0.00 0.00 0.00 60 1014.1
20260508143905 70 274 0.0 4.3 0.00 0.00 0.00 61 1013.8
20260508143406 69 285 0.9 4.3 0.00 0.00 0.00 64 1014.1
20260508142905 68 276 0.0 4.3 0.00 0.00 0.00 65 1014.0
20260508142405 67 288 0.0 2.6 0.00 0.00 0.00 66 1014.1
20260508141906 67 268 0.0 4.3 0.00 0.00 0.00 68 1014.0
20260508141405 65 234 0.0 4.3 0.00 0.00 0.00 69 1014.0
20260508140906 65 223 0.0 1.7 0.00 0.00 0.00 70 1014.1
20260508140406 64 275 0.0 1.7 0.00 0.00 0.00 72 1014.3
20260508135905 64 243 0.0 0.9 0.00 0.00 0.00 73 1014.5
20260508135405 63 261 0.0 1.7 0.00 0.00 0.00 74 1014.4
20260508134906 62 279 0.0 1.7 0.00 0.00 0.00 75 1014.5
20260508134406 61 285 0.9 1.7 0.00 0.00 0.00 76 1014.5
20260508133905 60 265 0.0 0.9 0.00 0.00 0.00 76 1014.8
20260508133405 59 193 0.0 2.6 0.00 0.00 0.00 77 1014.9
20260508132906 59 249 0.0 0.9 0.00 0.00 0.00 77 1014.7
20260508132406 58 186 0.0 4.3 0.00 0.00 0.00 78 1014.9
20260508131905 57 211 0.0 0.9 0.00 0.00 0.00 78 1015.1
20260508130406 54 191 0.0 0.9 0.00 0.00 0.00 80 1015.2
20260508125905 53 207 0.0 0.0 0.00 0.00 0.00 80 1015.1
20260508124905 51 182 0.0 0.9 0.00 0.00 0.00 81 1015.4
20260508124405 51 182 0.0 1.7 0.00 0.00 0.00 81 1015.3
20260508123905 50 187 0.9 6.1 0.00 0.00 0.00 81 1015.6
20260508121906 47 187 1.7 5.2 0.00 0.00 0.00 82 1015.7
20260508121405 46 209 0.9 2.6 0.00 0.00 0.00 82 1015.6
20260508120905 45 208 0.9 2.6 0.00 0.00 0.00 82 1015.3
20260508115905 43 244 0.0 1.7 0.00 0.00 0.00 82 1015.7
20260508115406 42 245 0.0 0.9 0.00 0.00 0.00 82 1016.0
20260508114906 42 245 0.0 0.9 0.00 0.00 0.00 82 1016.0
20260508114406 41 245 0.0 1.7 0.00 0.00 0.00 82 1015.7
20260508113406 39 268 0.0 1.7 0.00 0.00 0.00 81 1015.9
20260508112905 39 279 0.0 1.7 0.00 0.00 0.00 81 1015.9
20260508112405 39 282 0.0 1.7 0.00 0.00 0.00 80 1015.9
20260508111405 38 296 0.0 0.0 0.00 0.00 0.00 80 1015.7
20260508110905 38 296 0.0 0.0 0.00 0.00 0.00 80 1015.7
20260508105905 38 296 0.0 0.0 0.00 0.00 0.00 80 1015.6
20260508105405 38 296 0.0 0.0 0.00 0.00 0.00 79 1015.7
20260508104905 38 296 0.0 0.0 0.00 0.00 0.00 79 1015.6
20260508104405 38 296 0.0 0.0 0.00 0.00 0.00 79 1015.6
20260508103405 38 296 0.0 0.0 0.00 0.00 0.00 79 1015.5
20260508102905 38 296 0.0 0.0 0.00 0.00 0.00 79 1015.5
20260508102405 38 296 0.0 0.0 0.00 0.00 0.00 79 1015.6
20260508101405 39 296 0.0 0.0 0.00 0.00 0.00 79 1015.5
20260508100905 39 296 0.0 0.0 0.00 0.00 0.00 79 1015.7
20260508100405 39 296 0.0 0.0 0.00 0.00 0.00 79 1015.5
20260508095905 39 296 0.0 0.0 0.00 0.00 0.00 79 1015.7
20260508095405 39 296 0.0 0.0 0.00 0.00 0.00 79 1015.3
20260508094906 39 296 0.0 0.0 0.00 0.00 0.00 78 1015.3
20260508094405 39 296 0.0 0.0 0.00 0.00 0.00 78 1015.6
20260508093905 39 296 0.0 0.0 0.00 0.00 0.00 78 1015.4
20260508093405 39 296 0.0 0.0 0.00 0.00 0.00 78 1015.4
20260508092905 39 296 0.0 0.0 0.00 0.00 0.00 78 1015.4
20260508092405 39 296 0.0 0.0 0.00 0.00 0.00 78 1015.4
20260508091905 39 296 0.0 0.0 0.00 0.00 0.00 78 1015.6
20260508091405 39 296 0.0 0.0 0.00 0.00 0.00 78 1015.6
20260508090905 39 296 0.0 0.0 0.00 0.00 0.00 78 1015.3
20260508090405 39 296 0.0 0.0 0.00 0.00 0.00 77 1015.3
20260508085905 39 296 0.0 0.0 0.00 0.00 0.00 77 1015.4
20260508085405 39 296 0.0 0.0 0.00 0.00 0.00 77 1015.3
20260508084405 39 296 0.0 0.0 0.00 0.00 0.00 77 1015.3
20260508083905 39 296 0.0 0.0 0.00 0.00 0.00 77 1015.3
20260508083405 39 296 0.0 0.9 0.00 0.00 0.00 77 1015.0
20260508082405 39 305 0.0 0.0 0.00 0.00 0.00 76 1015.1
20260508081905 39 305 0.0 0.0 0.00 0.00 0.00 76 1015.4
20260508080905 39 305 0.0 0.0 0.00 0.00 0.00 76 1015.5
20260508075905 39 305 0.0 0.9 0.00 0.00 0.00 76 1015.2
20260508074904 39 307 0.0 0.0 0.00 0.00 0.00 75 1015.3
20260508074405 39 307 0.0 0.0 0.00 0.00 0.00 75 1015.4
20260508073405 39 307 0.0 0.0 0.00 0.00 0.00 75 1015.2
20260508072905 40 307 0.0 0.0 0.00 0.00 0.00 75 1015.4
20260508072405 40 307 0.0 0.0 0.00 0.00 0.00 74 1015.4
20260508071905 40 307 0.0 0.0 0.00 0.00 0.00 74 1015.2
20260508071405 40 307 0.0 0.0 0.00 0.00 0.00 74 1015.4
20260508070905 40 307 0.0 0.0 0.00 0.00 0.00 74 1015.3
20260508070405 40 307 0.0 0.0 0.00 0.00 0.00 74 1015.1
20260508065905 40 307 0.0 0.0 0.00 0.00 0.00 74 1015.4
20260508064905 40 307 0.0 0.0 0.00 0.00 0.00 73 1015.2
20260508064405 40 307 0.0 0.0 0.00 0.00 0.00 73 1015.3
20260508063905 40 307 0.0 0.0 0.00 0.00 0.00 73 1015.6
20260508063405 40 307 0.0 0.0 0.00 0.00 0.00 73 1015.2
20260508062905 40 307 0.0 0.0 0.00 0.00 0.00 72 1015.4
20260508062405 40 307 0.0 0.0 0.00 0.00 0.00 72 1015.4
20260508061905 41 307 0.0 0.0 0.00 0.00 0.00 72 1015.5
20260508061404 41 307 0.0 0.0 0.00 0.00 0.00 72 1015.4
20260508060905 41 307 0.0 0.0 0.00 0.00 0.00 72 1015.8
20260508060405 41 307 0.0 0.0 0.00 0.00 0.00 71 1015.4
20260508055905 41 307 0.0 0.0 0.00 0.00 0.00 71 1016.0
20260508055405 41 307 0.0 0.0 0.00 0.00 0.00 71 1015.8
20260508054405 41 307 0.0 0.0 0.00 0.00 0.00 70 1015.7
20260508053905 41 307 0.0 0.0 0.00 0.00 0.00 70 1015.9
20260508053405 41 307 0.0 0.0 0.00 0.00 0.00 70 1015.8
20260508052905 41 307 0.0 0.0 0.00 0.00 0.00 69 1015.8
20260508052404 42 307 0.0 0.0 0.00 0.00 0.00 69 1015.9
20260508051905 42 307 0.0 0.0 0.00 0.00 0.00 69 1015.8
20260508051404 42 307 0.0 0.0 0.00 0.00 0.00 68 1015.8
20260508050905 42 307 0.0 0.0 0.00 0.00 0.00 68 1015.8
20260508050404 42 307 0.0 0.0 0.00 0.00 0.00 68 1015.7
20260508045905 42 307 0.0 0.0 0.00 0.00 0.00 67 1015.7
20260508045404 42 307 0.0 0.0 0.00 0.00 0.00 67 1015.6
20260508044405 42 307 0.0 0.0 0.00 0.00 0.00 66 1015.6
20260508043904 43 307 0.0 0.0 0.00 0.00 0.00 66 1015.6
20260508043405 43 307 0.0 0.0 0.00 0.00 0.00 66 1015.6
20260508042904 43 307 0.0 0.0 0.00 0.00 0.00 66 1015.6
20260508042405 43 307 0.0 0.0 0.00 0.00 0.00 65 1015.3
20260508041904 43 307 0.0 0.0 0.00 0.00 0.00 65 1015.4
20260508040905 43 307 0.0 0.0 0.00 0.00 0.00 64 1015.1
20260508040404 44 307 0.0 0.0 0.00 0.00 0.00 64 1015.2
20260508035904 44 307 0.0 0.0 0.00 0.43 0.00 64 1015.4
20260508035405 44 307 0.0 0.0 0.00 0.43 0.00 63 1015.4
20260508034904 44 307 0.0 0.0 0.00 0.43 0.00 63 1015.2
20260508034405 44 307 0.0 0.0 0.00 0.43 0.00 62 1015.4
20260508033904 44 307 0.0 0.0 0.00 0.43 0.00 62 1015.3
20260508033405 44 307 0.0 0.0 0.00 0.43 0.00 61 1015.3
20260508032904 45 307 0.0 0.0 0.00 0.43 0.00 61 1015.3
20260508032405 45 307 0.0 0.0 0.00 0.43 0.00 61 1015.4
20260508031905 45 307 0.0 0.0 0.00 0.43 0.00 60 1015.3
20260508031405 45 307 0.0 0.0 0.00 0.43 0.00 60 1015.5
20260508030404 46 307 0.0 0.0 0.00 0.43 0.00 59 1015.3
20260508025905 46 307 0.0 0.0 0.00 0.43 0.00 59 1015.1
20260508025405 46 307 0.0 0.0 0.00 0.43 0.00 58 1015.3
20260508024904 46 307 0.0 0.0 0.00 0.43 0.00 58 1015.4
20260508024405 47 307 0.0 0.0 0.00 0.43 0.00 57 1015.1
20260508023905 47 307 0.0 0.0 0.00 0.43 0.00 57 1014.9
20260508023405 47 307 0.0 0.0 0.00 0.43 0.00 56 1014.9
20260508022905 47 307 0.0 0.0 0.00 0.43 0.00 56 1014.9